CAPE
32 9 2 93 123 97 116 105 120 79 32 0 0 59 110 128 132 196 251 282 309 384 422 426 421 602 902 797 716 459 257 450 871
38 4 11 49 74 60 89 70 159 118 99 26 13 72 183 166 189 205 209 216 306 362 427 383 376 607 762 791 773 786 558 433 734
39 11 0 30 33 0 12 44 130 147 152 121 94 86 124 153 318 318 324 301 322 329 241 403 398 317 330 675 698 777 725 549 799
68 20 14 9 40 33 27 44 106 262 203 125 137 122 56 86 207 388 402 362 350 471 500 478 342 327 326 459 589 794 903 807 764
14 17 14 20 52 57 34 4 106 159 206 124 160 183 150 154 135 201 391 356 320 464 504 366 282 339 509 543 555 603 730 851 877
40 17 26 1 47 63 58 40 24 97 98 65 37 91 180 281 314 329 313 369 401 410 509 478 380 291 411 320 249 334 496 623 733
33 72 48 85 13 36 68 56 49 62 41 13 1 39 71 80 167 174 207 272 332 382 436 563 570 475 559 501 335 220 159 248 545
2 3 33 128 112 56 42 91 113 120 109 84 47 45 6 19 19 4 11 20 91 135 247 405 652 736 619 514 360 388 479 437 651
8 16 1 6 25 26 31 46 82 85 76 74 60 44 12 4 18 9 0 12 0 0 0 21 112 298 498 662 694 809 820 938 1049
3 5 4 22 10 1 1 0 0 5 8 9 0 0 4 7 4 20 3 4 0 0 0 0 0 2 32 138 272 180 356 542 779
0 0 0 0 2 2 1 1 0 0 0 0 0 0 0 1 3 2 2 0 0 0 0 0 0 0 5 62 46 20 120 188 327
0 0 0 0 0 0 0 0 0 0 0 0 0 0 0 0 0 0 0 0 0 0 0 0 0 0 62 0 0 0 0 24 107
0 0 0 0 0 0 0 0 0 0 0 0 0 0 0 0 0 0 0 0 0 0 0 0 0 2 0 0 0 0 0 0 0
0 0 0 0 0 0 0 0 0 0 0 0 0 0 0 0 0 0 0 0 0 0 0 0 0 0 0 0 0 0 0 0 0
0 0 0 0 0 0 0 0 0 0 0 0 0 0 0 0 0 0 0 0 0 0 0 0 0 0 0 0 0 0 0 0 0
0 0 0 0 0 0 0 0 0 0 0 0 0 0 0 0 0 0 0 0 0 0 0 0 0 0 0 0 0 0 0 0 0
0 0 0 0 0 0 0 0 0 0 0 0 0 0 0 0 0 0 0 0 0 0 0 0 0 0 0 0 0 0 0 0 0
0 0 0 0 0 0 0 0 0 0 0 0 0 0 0 0 0 0 0 0 0 0 0 0 0 0 0 0 0 0 0 0 0
0 0 0 0 0 0 0 0 0 0 0 0 0 0 0 0 0 0 0 0 0 0 0 0 0 0 0 0 0 0 0 0 0
0 0 0 0 0 0 0 0 0 0 0 0 0 0 0 0 0 0 0 0 0 0 0 0 0 0 0 0 0 0 0 0 0
CIN
-138 -117 -116 -96 -122 -143 -135 -122 -113 -127 -116 0 0 -90 -80 -76 -71 -46 -51 -64 -62 -58 -55 -46 -57 -51 -39 -40 -45 -64 -72 -53 -39
-159 -150 -151 -111 -128 -116 -126 -116 -119 -109 -122 -125 -124 -92 -71 -67 -61 -58 -49 -59 -72 -75 -79 -66 -71 -63 -53 -50 -44 -41 -59 -55 -38
-172 -192 0 -159 -116 -3 -142 -122 -108 -72 -92 -104 -109 -89 -73 -55 -44 -46 -48 -57 -58 -72 -85 -84 -77 -77 -89 -60 -53 -45 -46 -50 -42
-192 -205 -218 -185 -145 -128 -135 -89 -72 -85 -99 -93 -84 -83 -81 -61 -43 -41 -43 -46 -51 -55 -71 -68 -71 -84 -98 -75 -64 -42 -39 -38 -38
-226 -188 -168 -208 -105 -110 -94 -23 -26 -48 -94 -64 -61 -71 -72 -58 -56 -42 -36 -40 -53 -53 -43 -61 -70 -72 -69 -65 -67 -63 -49 -33 -31
-220 -198 -153 -20 -89 -77 -62 -55 -42 -35 -36 -75 -124 -104 -66 -66 -44 -44 -54 -55 -53 -60 -41 -37 -56 -62 -59 -71 -80 -79 -61 -44 -38
-251 -167 -163 -112 -144 -110 -78 -69 -72 -15 -26 -47 -43 -70 -80 -102 -80 -80 -78 -82 -81 -67 -58 -45 -41 -45 -44 -60 -68 -79 -78 -74 -44
-125 -199 -190 -130 -122 -115 -103 -60 -38 -31 -47 -42 -63 -47 -29 -93 -155 -181 -33 -33 -147 -128 -114 -88 -64 -53 -52 -51 -57 -58 -59 -46 -33
-320 -320 -290 -263 -229 -159 -124 -54 -34 -58 -74 -9 -17 -34 -30 -38 -122 -164 0 -198 0 0 0 -178 -159 -102 -76 -60 -53 -54 -41 -24 -19
0 0 -263 -313 -310 -20 0 0 0 -112 -108 -78 0 -1 -9 -52 -131 -151 -65 -223 -5 0 0 0 0 -37 -125 -140 -101 -171 -123 -83 -48
0 0 0 0 0 0 0 0 0 0 0 0 0 0 0 0 0 0 -58 -43 0 0 0 0 0 0 -139 -160 -200 -155 -196 -165 -109
0 0 0 0 0 0 0 0 0 0 0 0 0 0 0 0 0 0 0 0 0 0 0 0 0 0 -77 0 0 0 0 -35 -187
0 0 0 0 0 0 0 0 0 0 0 0 0 0 0 0 0 0 0 0 0 0 0 0 -14 0 0 0 0 0 0 0 0
0 0 0 0 0 0 0 0 0 0 0 0 0 0 0 0 0 0 0 0 0 0 0 0 0 0 0 0 0 0 0 0 0
0 0 0 0 0 0 0 0 0 0 0 0 0 0 0 0 0 0 0 0 0 0 0 0 0 0 0 0 0 0 0 0 0
0 0 0 0 0 0 0 0 0 0 0 0 0 0 0 0 0 0 0 0 0 0 0 0 0 0 0 0 0 0 0 0 0
0 0 0 0 0 0 0 0 0 0 0 0 0 0 0 0 0 0 0 0 0 0 0 0 0 0 0 0 0 0 0 0 0
0 0 0 0 0 0 0 0 0 0 0 0 0 0 0 0 0 0 0 0 0 0 0 0 0 0 0 0 0 0 0 0 0
0 0 0 0 0 0 0 0 0 0 0 0 0 0 0 0 0 0 0 0 0 0 0 0 0 0 0 0 0 0 0 0 0
0 0 0 0 0 0 0 0 0 0 0 0 0 0 0 0 0 0 0 0 0 0 0 0 0 0 0 0 0 0 0 0 0
Wind_Speed
16 36 15 14 14 11 12 9 12 7 18 16 13 3 8 22 11 14 19 18 22 22 24 22 19 20 20 20 20 20 19 20 20
14 11 13 14 14 14 19 21 8 14 8 7 4 4 10 16 15 8 14 21 21 21 23 22 20 20 21 20 21 20 17 19 22
7 8 15 10 12 13 20 31 10 9 9 13 10 10 12 13 14 12 12 18 22 22 21 21 21 20 23 23 21 21 20 18 19
7 8 10 8 9 12 11 15 13 13 12 14 14 11 16 15 17 20 16 17 21 21 21 21 22 20 22 23 24 21 22 22 20
9 11 8 8 7 8 8 16 15 21 25 20 13 15 15 18 20 21 21 21 22 23 24 24 23 22 22 19 17 19 20 23 23
6 7 8 8 8 9 9 12 18 19 18 16 18 15 13 15 18 21 24 25 26 26 27 26 24 23 24 23 23 22 22 24 24
6 8 10 9 9 12 13 17 9 15 17 13 13 14 15 12 14 16 19 20 21 24 25 25 23 23 25 25 25 24 25 27 26
6 9 9 8 7 6 7 6 6 2 13 17 11 10 14 12 9 12 14 16 17 17 18 20 23 23 25 26 25 25 25 25 27
7 8 6 7 7 7 6 4 7 11 8 14 10 11 11 11 13 11 13 13 15 16 17 18 20 21 23 25 26 28 29 27 25
9 7 6 8 7 5 5 6 4 5 6 6 7 12 9 8 8 14 14 14 17 18 18 19 20 21 23 23 24 26 26 27 26
9 8 6 7 4 3 4 4 3 4 4 5 7 11 11 10 12 16 20 19 21 21 21 20 20 22 21 20 23 24 24 25 25
9 4 2 1 3 4 4 5 5 6 6 7 9 13 13 12 11 11 16 20 21 20 25 23 22 22 20 17 20 22 21 20 21
4 5 2 2 2 4 4 4 5 6 6 8 10 11 12 12 12 13 14 15 16 16 16 22 21 16 16 19 20 22 22 21 20
3 3 3 3 1 2 2 3 4 5 7 9 10 11 12 13 13 14 14 14 15 15 14 12 13 13 12 15 17 21 22 22 23
4 3 3 2 2 1 3 5 6 7 9 10 11 11 12 13 14 14 14 14 14 14 13 12 13 13 14 15 18 20 23 23 24
3 3 2 2 1 3 7 9 10 11 13 11 12 13 14 14 14 15 16 15 14 14 14 14 16 17 18 21 24 24 26 26 27
3 4 4 6 6 7 9 11 12 13 13 13 13 14 15 16 17 17 17 16 17 17 17 18 19 20 22 23 25 28 29 29 30
9 7 7 8 9 11 13 14 15 14 14 14 15 17 18 18 18 17 16 17 18 17 19 19 21 23 24 26 29 31 31 33 34
12 11 12 13 13 13 16 17 17 18 17 15 18 19 18 17 17 17 17 16 17 17 17 19 20 20 22 24 27 28 29 30 30
13 14 15 17 19 19 16 17 17 17 15 15 15 16 15 15 15 15 16 16 16 16 17 18 19 20 22 24 25 26 28 29 27
Wind_Direction
208 225 175 180 189 212 229 227 158 168 158 157 153 197 269 252 284 289 259 268 250 227 217 234 254 231 240 230 244 257 263 253 258
163 205 197 183 184 225 244 248 216 171 227 180 219 255 272 269 274 299 286 264 264 269 239 247 257 258 243 263 236 261 282 266 252
171 201 231 209 223 197 169 188 220 216 240 256 258 268 275 276 277 285 296 281 271 267 269 267 270 276 255 257 271 271 275 280 280
212 197 221 208 229 232 232 261 259 248 248 260 264 266 271 274 274 272 284 288 280 277 274 275 269 277 273 259 260 276 268 265 280
255 252 237 221 211 242 231 260 268 258 253 262 269 270 272 272 271 271 274 280 281 279 276 278 279 284 281 287 295 289 283 269 264
268 256 257 246 243 247 250 251 257 264 262 267 273 278 279 279 277 272 270 274 275 276 275 279 283 283 279 280 277 284 282 274 271
272 273 269 270 266 269 268 265 273 251 261 271 277 293 285 287 285 281 278 278 281 281 280 280 285 284 281 279 278 281 280 276 274
282 278 277 279 278 287 275 260 258 223 268 266 287 282 302 290 299 290 289 290 290 295 298 294 289 288 284 281 284 285 285 285 278
281 284 294 287 290 297 290 257 263 266 289 279 294 305 303 280 275 291 294 303 302 300 300 303 301 299 296 289 287 281 278 283 287
282 290 303 285 293 311 304 304 306 281 305 341 336 349 331 300 297 283 299 301 299 298 300 302 302 303 301 298 296 293 287 284 286
279 289 295 286 305 356 1 8 5 7 357 355 346 339 336 317 300 279 279 297 303 290 290 297 301 301 306 312 301 296 296 292 291
280 293 303 3 64 66 48 53 52 45 22 0 342 337 342 333 334 330 312 311 311 298 278 286 295 300 303 313 313 314 310 304 302
269 268 241 129 87 76 65 40 37 28 6 358 352 337 340 344 346 345 348 345 345 344 303 286 289 305 303 304 306 310 315 310 307
258 233 207 223 116 55 11 6 6 354 344 339 331 338 346 349 346 347 347 349 349 351 355 356 354 326 319 313 313 316 317 313 314
176 148 149 147 108 359 325 326 345 327 321 332 335 340 342 340 341 341 343 347 347 344 347 352 342 339 336 324 315 321 324 319 315
186 194 194 241 248 295 298 307 314 309 312 331 333 326 323 325 328 333 339 340 340 339 335 331 324 319 312 301 300 302 313 310 314
181 223 244 257 275 297 310 312 315 314 312 317 319 316 315 315 320 326 329 326 324 321 321 318 315 312 310 311 313 309 311 315 316
243 253 266 275 290 299 304 307 308 312 311 308 304 302 303 310 318 323 325 324 319 317 318 316 313 311 309 307 306 307 307 306 304
258 263 269 277 289 296 295 298 303 300 304 305 297 295 303 312 315 316 316 316 319 327 327 324 322 321 318 314 313 311 312 311 310
268 272 279 286 289 298 304 303 304 305 306 305 305 304 309 312 315 316 315 315 315 314 320 324 325 325 325 323 319 318 317 317 317